Oakland, CA

4:37 PM PDT on September 21, 2017 (GMT -0700)
Metro Oakland International

Weather History for KOAK - March, 2014

Change the Weather History Date:

Friday, March 21, 2014

  Actual Average Record
Temperature  
Mean Temperature 56 °F 55 °F  
Max Temperature 63 °F 63 °F 76 °F (2000)
Min Temperature 48 °F 46 °F 35 °F (1955)
Degree Days  
Heating Degree Days 9 10  
Month to date heating degree days 111 234  
Since 1 July heating degree days 1932 2256  
Cooling Degree Days 0 0  
Month to date cooling degree days 1 0  
Year to date cooling degree days 1 0  
Growing Degree Days 6 (Base 50)    
Moisture  
Dew Point 45 °F    
Average Humidity 69    
Maximum Humidity 86    
Minimum Humidity 52    
Precipitation  
Precipitation 0.00 in 0.08 in 0.95 in (1975)
Month to date precipitation 0.42 2.25  
Year to date precipitation 4.12 10.19  
Since 1 July precipitation 6.19  
Sea Level Pressure  
Sea Level Pressure 29.98 in    
Wind  
Wind Speed 8 mph (West)    
Max Wind Speed 20 mph    
Max Gust Speed 37 mph    
Visibility 10 miles    
Events      
T = Trace of Precipitation, MM = Missing Value Source: NWS Daily Summary

Daily Weather History Graph

Daily Weather History Graph

Search for Another Location

Airport or City:

Trip Planner

Search our weather history database for the weather conditions in past years. The results will help you decide how hot, cold, wet, or windy it might be!

Date:

Astronomy

Mar. 21, 2014 Rise Set
Actual Time 7:10 AM PDT 7:21 PM PDT
Civil Twilight 6:44 AM PDT 7:47 PM PDT
Nautical Twilight 6:14 AM PDT 8:18 PM PDT
Astronomical Twilight 5:42 AM PDT 8:49 PM PDT
Moon No Moon Rise 10:11 AM PDT
Length of Visible Light 13h 03m
Length of Day
12h 11m
Waning Gibbous, 74% of the Moon is Illuminated
Mar 21
Waning Gibbous
Mar 23
Last Quarter
Mar 30
New
Apr 7
First Quarter
Apr 15
Full

Hourly Weather History & Observations

Time (PDT) Temp. Dew Point Humidity Pressure Visibility Wind Dir Wind Speed Gust Speed Precip Events Conditions
12:53 AM 52.0 °F 45.0 °F 77% 29.99 in 10.0 mi West 9.2 mph - N/A   Partly Cloudy
1:45 AM 53.6 °F 46.4 °F 77% 29.98 in 10.0 mi Calm Calm - N/A   Mostly Cloudy
1:53 AM 52.0 °F 45.0 °F 77% 29.98 in 10.0 mi NW 3.5 mph - N/A   Mostly Cloudy
2:53 AM 52.0 °F 46.0 °F 80% 29.97 in 10.0 mi Calm Calm - N/A   Mostly Cloudy
3:53 AM 52.0 °F 45.0 °F 77% 29.96 in 10.0 mi SSW 5.8 mph - N/A   Scattered Clouds
4:53 AM 48.9 °F 44.1 °F 83% 29.96 in 9.0 mi Calm Calm - N/A   Scattered Clouds
5:10 AM 48.2 °F 44.6 °F 87% 29.96 in 9.0 mi Calm Calm - N/A   Mostly Cloudy
5:53 AM 48.9 °F 44.1 °F 83% 29.96 in 10.0 mi Calm Calm - N/A   Scattered Clouds
6:04 AM 50.0 °F 44.6 °F 82% 29.97 in 9.0 mi SW 5.8 mph - N/A   Mostly Cloudy
6:31 AM 51.8 °F 44.6 °F 76% 29.96 in 10.0 mi SW 10.4 mph - N/A   Scattered Clouds
6:53 AM 52.0 °F 45.0 °F 77% 29.97 in 10.0 mi WSW 9.2 mph - N/A   Partly Cloudy
7:53 AM 52.0 °F 45.0 °F 77% 29.98 in 9.0 mi West 4.6 mph - N/A   Mostly Cloudy
8:53 AM 53.1 °F 45.0 °F 74% 29.99 in 9.0 mi WSW 6.9 mph - N/A   Mostly Cloudy
9:53 AM 55.0 °F 45.0 °F 69% 30.01 in 10.0 mi SW 4.6 mph - N/A   Partly Cloudy
10:53 AM 55.9 °F 45.0 °F 67% 30.01 in 10.0 mi WSW 4.6 mph - N/A   Partly Cloudy
11:53 AM 57.0 °F 45.0 °F 64% 30.01 in 10.0 mi WSW 4.6 mph - N/A   Scattered Clouds
12:53 PM 59.0 °F 45.0 °F 60% 29.99 in 10.0 mi Calm Calm - N/A   Scattered Clouds
1:53 PM 62.1 °F 45.0 °F 53% 29.98 in 10.0 mi West 8.1 mph - N/A   Scattered Clouds
2:53 PM 63.0 °F 46.0 °F 54% 29.97 in 10.0 mi WNW 12.7 mph - N/A   Partly Cloudy
3:53 PM 62.1 °F 45.0 °F 53% 29.96 in 10.0 mi WNW 13.8 mph - N/A   Partly Cloudy
4:53 PM 61.0 °F 46.9 °F 60% 29.96 in 10.0 mi WNW 17.3 mph 21.9 mph N/A   Partly Cloudy
5:53 PM 59.0 °F 46.9 °F 64% 29.96 in 10.0 mi WNW 13.8 mph 24.2 mph N/A   Partly Cloudy
6:53 PM 57.0 °F 46.9 °F 69% 29.96 in 10.0 mi WNW 11.5 mph - N/A   Clear
7:53 PM 54.0 °F 46.9 °F 77% 29.97 in 10.0 mi WNW 10.4 mph - N/A   Partly Cloudy
8:53 PM 54.0 °F 46.9 °F 77% 29.99 in 10.0 mi WSW 13.8 mph - N/A   Partly Cloudy
9:53 PM 53.1 °F 46.0 °F 77% 30.00 in 10.0 mi West 12.7 mph - N/A   Partly Cloudy
10:53 PM 53.1 °F 45.0 °F 74% 30.00 in 10.0 mi West 11.5 mph - N/A   Partly Cloudy
11:53 PM 53.1 °F 45.0 °F 74% 30.01 in 10.0 mi West 11.5 mph - N/A   Partly Cloudy